[Date Prev][Date Next][Thread Prev][Thread Next] - [Date Index][Thread Index][Author Index]

2 Line ISS Keps 5-17



ISS
1 25544U 98067A   05136.97685006  .00028181  00000-0  21652-3 0  4912
2 25544 051.6453 060.7589 0005636 129.0094 329.4428 15.71798543370772
----
Via the sarex mailing list at AMSAT.ORG courtesy of AMSAT-NA.
To unsubscribe, send "unsubscribe sarex" to Majordomo@amsat.org



AMSAT Top AMSAT Home